Location: Dunedin
(45.8670°S, 170.5000°E)
Time: 22:57:00
(UTC+13:00)

USA 186 - Pass Details

Date: 24 January 2019
Orbit: 262 x 443 km, 96.9° (Epoch: 04 October)

Event Time Altitude Azimuth Distance (km) Brightness Sun altitude
Rises 22:53:29 0° 182° (S) 2,289 6.3 -13.6°
Reaches altitude 10° 22:55:52 10° 201° (SSW) 1,393 5.5 -13.9°
Maximum altitude 22:58:02 19° 248° (WSW) 955 4.4 -14.2°
Drops below altitude 10° 23:00:07 10° 295° (WNW) 1,315 4.5 -14.4°
Sets 23:02:17 0° 315° (NW) 2,109 5.3 -14.6°
